Location: ??????????
(38.3011°N, 23.2654°E)
Time: 23:03:44
(UTC+00:00)

Daily predictions for brighter satellites

Satellite Brightness Start Highest point End
(mag) Time Altitude Azimuth Time Altitude Azimuth Time Altitude Azimuth
MOS 1-B 4.4 18:12:52 10° SSE 18:18:35 71° ENE 18:24:20 10° N
NOSS 3-4 (A) 4.1 18:11:42 10° NNW 18:18:52 77° ENE 18:27:04 10° SE
NOSS 3-4 (C) 4.1 18:11:45 10° NNW 18:18:55 76° ENE 18:27:03 10° SE
Cosmos 1140 Rocket 3.7 18:15:58 10° SSW 18:21:11 80° WNW 18:26:24 10° NNE
BREEZE-M DEB (TANK) 2.4 18:21:25 10° SSW 18:23:56 49° SE 18:29:39 10° ENE
Terra 3.9 18:22:16 10° E 18:24:14 13° ENE 18:26:11 10° NE
Cosmos 1805 3.4 18:21:19 10° NNW 18:25:01 72° W 18:28:40 10° S
PSLV R/B 3.7 18:21:37 10° SSE 18:25:06 54° ENE 18:28:33 10° N
Feng Yun 1-1 Rocket 4.5 18:22:40 10° SSE 18:28:34 87° WSW 18:34:23 10° NNW
Tiangong -1.1 18:25:35 10° WNW 18:28:38 44° N 18:31:41 10° ENE
Cosmos 1515 Rocket 4.4 18:24:58 10° SSE 18:28:44 30° E 18:32:31 10° NNE
Cosmos 1190 Rocket 4.5 18:24:53 10° S 18:29:47 41° ESE 18:34:44 10° NNE
CZ-4B R/B 3.4 18:24:34 10° S 18:29:50 74° WSW 18:35:10 10° NNW
Cosmos 1707 4.2 18:28:16 10° SE 18:30:47 18° E 18:33:19 10° NE
SL-4 R/B 3.8 18:28:06 10° W 18:31:25 31° NNW 18:34:57 10° NE
Cosmos 1633 Rocket 3.1 18:30:59 10° N 18:35:21 62° E 18:39:39 10° SSE
Okean O Rocket 1.6 18:32:04 10° SSE 18:36:27 87° ENE 18:40:52 10° NNW
Cosmos 2026 Rocket 4.0 18:30:23 10° S 18:36:35 78° E 18:42:42 10° N
SeaSat 1 3.9 18:33:03 10° ESE 18:36:59 25° NE 18:40:55 10° N
USA 234 3.2 18:32:17 10° NE 18:38:51 79° SE 18:45:22 10° SW
SL-24 R/B 4.4 18:34:26 10° SSE 18:39:34 73° ENE 18:44:02 10° N
Cosmos 1066 Rocket 4.3 18:33:50 10° S 18:39:39 71° E 18:45:25 10° NNE
CARTOSAT-1 3.9 18:36:47 10° S 18:41:01 67° W 18:45:16 10° NNW
CZ-4 R/B 3.6 18:42:03 10° SSW 18:45:15 24° W 18:48:31 10° NW
Cosmos 1766 3.4 18:41:35 10° N 18:45:15 52° E 18:48:43 11° SSE
FALCON 9 R/B 3.9 18:42:24 10° WSW 18:45:45 21° S 18:52:04 11° SSE
Cosmos 2285 Rocket 4.1 18:40:07 10° SSW 18:46:26 84° WNW 18:52:51 10° NNE
Cosmos 1470 Rocket 3.8 18:43:00 10° N 18:47:15 50° E 18:51:09 12° SSE
DELTA 2 R/B (1) 4.5 18:42:36 10° W 18:47:44 37° SSW 18:52:17 13° SE
Atlas Centaur 2 3.4 18:45:36 10° WSW 18:53:17 46° S 19:01:04 10° ESE
Cosmos 1666 Rocket 4.0 18:50:25 10° NNW 18:54:41 61° W 18:58:58 10° S
ERS-1 Rocket 3.9 18:53:15 14° SE 18:56:54 33° ENE 19:01:22 10° N
IRIDIUM 114 4.3 18:52:41 10° N 18:57:54 68° E 19:03:04 10° S
SL-16 R/B 4.0 18:54:09 10° N 18:58:06 19° NE 19:02:02 10° E
Cosmos 2082 Rocket 2.5 18:52:37 10° SSW 18:58:19 75° WNW 19:04:02 10° NNE
Cosmos 2369 3.9 18:54:25 10° NNW 19:00:07 60° ENE 19:04:36 16° SE
Resurs 01 Rocket 3.0 18:56:56 10° SSW 19:01:01 37° W 19:05:06 10° NNW
Cosmos 1763 Rocket 3.8 18:56:52 10° N 19:01:59 51° ENE 19:05:44 17° SE
BREEZE-M DEB (TANK) 3.2 19:01:44 10° WSW 19:03:56 43° NNW 19:06:36 10° NE
Cosmos 1441 Rocket 4.4 19:03:09 10° NNE 19:06:07 23° ENE 19:07:31 19° ESE
SPOT 5 2.6 19:03:34 16° SSE 19:06:53 63° ENE 19:11:10 10° N
IRIDIUM 103 4.3 19:01:48 10° N 19:07:03 84° E 19:12:16 10° S
Lacrosse 5 rocket 3.3 19:04:30 10° WNW 19:07:43 22° WSW 19:10:51 10° S
Centaur D-1AR AC-39 4.2 19:04:54 10° S 19:15:44 - ESE 19:07:30 15° SSE
Centaur D AC-29 3.6 19:04:47 10° WSW 19:10:14 43° SSE 19:37:55 10° ESE
Cosmos 1933 Rocket 4.0 19:07:17 10° N 19:11:34 47° E 19:14:13 21° SE
Cosmos 1470 2.8 19:10:57 10° N 19:14:34 53° E 19:16:30 25° SSE
IRS-1C Rocket 4.1 19:13:04 18° SSE 19:17:02 70° ENE 19:22:16 10° N
Cosmos 1908 3.5 19:18:48 10° N 19:22:14 42° E 19:23:31 30° SE
Cosmos 1674 3.6 19:20:41 10° SSW 19:24:00 43° W 19:27:20 10° N
Ariane Rocket 3.6 19:22:59 23° SE 19:25:45 43° ENE 19:30:33 10° N
Cosmos 1697 Rocket 4.4 19:21:26 10° NW 19:26:01 27° WSW 19:30:38 10° SSW
Cosmos 468 Rocket 4.1 19:23:52 10° N 19:29:03 60° ENE 19:31:49 26° SE
KORONAS-FOTON 4.4 19:26:06 10° SSW 19:29:42 52° W 19:33:21 10° N
COSMOS 2406 4.2 19:25:50 10° SW 19:31:23 49° WNW 19:36:59 10° NNE
Cosmos 1842 4.2 19:29:41 10° SSW 19:33:09 42° W 19:36:39 10° N
Meteor 1-13 Rocket 4.2 19:28:16 12° S 19:33:41 78° E 19:39:25 10° NNE
SPOT 3 Rocket 4.0 19:31:39 26° SE 19:34:12 47° ENE 19:39:09 10° N
MetOp-B 4.4 19:31:48 17° S 19:35:58 67° WSW 19:41:18 10° NNW
Cosmos 1553 Rocket 4.1 19:32:44 10° N 19:38:55 78° W 19:43:46 18° S
S3M 4.2 19:34:48 10° N 19:41:04 57° E 19:44:25 28° SSE
Cosmos 1655 Rocket 4.4 19:38:03 25° SSE 19:41:27 47° E 19:47:32 10° NNE
ARGOS Delta rocket 4.2 19:39:22 19° S 19:42:31 56° W 19:46:52 10° NNW
Cosmos 2322 Rocket 3.6 19:38:15 10° N 19:42:59 26° ENE 19:45:40 19° E
Cosmos 1980 Rocket 3.1 19:37:42 10° NW 19:43:04 43° WSW 19:47:06 17° S
Okean-O 4.4 19:45:18 10° SSW 19:49:02 27° W 19:52:50 10° NW
SJ 16-02 3.0 19:52:10 18° E 19:52:10 18° E 19:54:20 10° NE
Cosmos 2266 Rocket 4.0 19:46:45 19° S 19:51:27 84° E 19:57:51 10° N
Cosmos 2278 3.8 19:46:22 10° NNW 19:52:03 64° ENE 19:54:32 34° SE
Cosmos 1741 Rocket 4.2 19:51:37 34° SSE 19:53:29 49° ESE 19:58:34 10° NNE
USA 245 3.4 19:56:51 42° SW 19:57:32 51° W 20:01:11 10° NNW
Landsat 5 3.5 19:54:20 10° NNE 19:58:16 54° E 19:58:50 49° SE
Cosmos 540 Rocket 3.7 19:54:18 10° NNW 19:59:23 63° WSW 20:01:44 31° S
Landsat 4 3.3 19:59:02 66° S 19:59:30 88° W 20:02:56 10° NNW
Terra 2.0 19:59:05 32° S 20:01:13 67° W 20:05:55 10° NNW
Cosmos 1400 Rocket 2.7 20:00:07 41° SSW 20:01:25 80° W 20:05:18 10° N
Cosmos 968 Rocket 3.9 20:01:07 38° SE 20:01:54 41° ESE 20:06:44 10° NNE
SL-08 ROCKET BODY 4.4 19:58:41 22° S 20:02:54 87° W 20:09:02 10° N
Okean 3 4.4 20:03:17 30° E 20:03:17 30° E 20:06:39 10° NNE
Cosmos 2237 4.2 19:58:03 10° NNW 20:03:47 71° ENE 20:05:58 39° SE
Tiangong -2.0 20:02:27 10° WNW 20:05:19 71° WNW 20:05:19 71° WNW
Cosmos 1733 Rocket 3.7 20:02:40 10° N 20:06:47 38° ENE 20:07:15 37° E
Cosmos 2228 Rocket 3.1 20:07:19 50° SSE 20:08:21 69° E 20:12:53 10° NNE
Cosmos 2219 Rocket 4.1 20:07:41 10° N 20:11:36 19° NE 20:14:05 14° E
Cosmos 883 Rocket 4.5 20:06:51 10° N 20:13:12 76° E 20:15:47 38° SSE
SeaSat 1 3.2 20:12:15 29° SSW 20:14:10 42° WSW 20:18:50 10° NW
ATLAS CENTAUR R/B 1.5 20:17:20 48° NE 20:17:20 48° NE 20:20:01 10° NE
Meteor 2-10 Rocket 3.5 20:12:14 10° N 20:17:50 80° E 20:19:27 47° SSE
Meteor 1-15 Rocket 4.2 20:13:34 10° NNW 20:19:07 74° W 20:21:17 38° S
Meteor 1-23 Rocket 4.4 20:16:40 26° SSW 20:19:54 72° W 20:25:37 10° N
Cosmos 1953 4.2 20:23:38 10° NNE 20:25:44 18° ENE 20:25:44 18° ENE
Okean 1-7 3.9 20:28:24 34° ENE 20:28:24 34° ENE 20:31:48 10° NNE
MOS 1 Rocket 4.3 20:26:40 30° SSW 20:28:55 48° W 20:34:06 10° NNW
Cosmos 1455 4.3 20:28:39 10° NNE 20:29:57 15° NE 20:29:57 15° NE
Cosmos 2315 Rocket 4.0 20:25:36 10° N 20:32:00 84° W 20:34:22 42° S
CZ-2C R/B 4.2 20:29:48 10° NNE 20:33:28 42° ENE 20:33:28 42° ENE
Cosmos 2360 Rocket 2.6 20:29:30 10° NNW 20:35:04 53° ENE 20:36:22 44° ESE
Cosmos 841 Rocket 3.6 20:34:26 10° NNW 20:39:40 66° WSW 20:40:43 52° SSW
Cosmos 2333 Rocket 2.6 20:34:13 10° NNW 20:39:51 53° ENE 20:41:09 44° ESE
Atlas Centaur 2 3.2 20:34:21 10° WSW 20:42:15 47° S 20:43:36 43° SSE
SL-16 R/B 2.4 20:37:03 10° NNW 20:42:39 63° WSW 20:43:56 49° SSW
SL-14 R/B 4.3 20:42:15 36° W 20:42:45 38° W 20:46:19 10° N
RESURS DK-1 2.4 20:41:51 10° NNW 20:45:34 74° NNW 20:45:34 74° NNW
Cosmos 1833 4.1 20:48:14 45° SSW 20:50:03 82° WNW 20:55:42 10° NNE
Aureole 3 3.6 20:50:55 60° NW 20:50:55 60° NW 20:54:45 10° N
Cosmos 1300 3.8 20:50:04 10° NNW 20:52:53 36° WNW 20:52:53 36° WNW
Cosmos 1703 Rocket 4.3 20:55:40 43° ENE 20:55:40 43° ENE 20:59:12 10° NNE
Cosmos 1932 4.3 20:54:12 45° SSW 20:56:20 84° ESE 21:02:38 10° NNE
Cosmos 1862 Rocket 4.3 20:55:45 43° WSW 20:56:21 46° W 21:00:36 10° N
Cosmos 1346 Rocket 3.7 20:58:25 10° NNW 21:01:35 41° WNW 21:01:35 41° WNW
Meteor 1-16 Rocket 4.2 20:58:47 10° N 21:04:44 88° W 21:05:41 65° S
ATLAS 2AS CENTAUR R/B 2.7 20:59:24 10° NNW 21:06:10 70° NE 21:07:52 51° ESE
Cosmos 2333 4.1 21:06:30 10° NNW 21:12:17 76° ENE 21:12:55 68° ESE
ARIANE 5 R/B 2.8 21:17:31 65° NNW 21:17:31 65° NNW 21:21:14 10° NNW
Cosmos 1745 Rocket 4.0 21:20:33 61° SE 21:21:13 65° E 21:27:30 10° NNE
Okean 2 4.4 21:24:44 41° NW 21:24:44 41° NW 21:27:56 10° N
COSMOS 2455 3.6 21:25:53 37° E 21:25:53 37° E 21:30:30 10° NE
Cosmos 2322 Rocket 2.8 21:21:49 10° NW 21:27:08 42° WSW 21:27:28 42° WSW
SJ 16-02 2.7 21:28:53 31° W 21:29:20 31° WNW 21:33:14 10° N
Cosmos 2297 Rocket 3.7 21:31:24 23° E 21:31:24 23° E 21:34:40 10° NE
USA 281 3.1 21:32:45 62° SSW 21:33:47 73° WSW 21:40:23 10° NNW
Nadezhda 1 Rocket 3.8 21:30:10 10° N 21:36:29 77° E 21:37:05 70° SE
Cosmos 1386 Rocket 4.5 21:39:28 64° SW 21:40:25 76° W 21:46:41 10° N
GP-B 4.0 21:41:06 10° N 21:44:46 43° WNW 21:44:46 43° WNW
COSMOS 2428 3.3 21:40:09 10° N 21:45:38 47° ENE 21:46:15 45° E
GEOS 3 Rocket 4.3 21:46:42 10° NE 21:50:25 42° ENE 21:50:25 42° ENE
Cosmos 2219 Rocket 2.3 21:50:23 10° NNW 21:55:47 64° W 21:55:47 64° W
H-2A R/B 3.6 21:59:30 40° NW 21:59:30 40° NW 22:02:33 10° NNW
Cosmos 1782 Rocket 4.4 21:54:00 10° N 21:57:10 47° NNW 21:57:10 47° NNW
Cosmos 371 Rocket 4.0 22:00:27 46° NE 22:00:27 46° NE 22:04:02 10° NNE
Cosmos 2208 Rocket 4.2 21:54:16 10° NNW 21:59:07 62° NE 21:59:07 62° NE
Cosmos 1953 4.4 21:59:03 10° NW 22:00:51 20° WNW 22:00:51 20° WNW
Cosmos 158 Rocket 4.2 21:57:25 10° NNW 22:02:24 62° NE 22:02:24 62° NE
Spot 4 4.3 22:03:33 53° WNW 22:03:33 53° WNW 22:07:31 10° NNW
CZ-4C R/B 2.5 22:11:44 47° NE 22:11:44 47° NE 22:15:33 10° NE
ALOS 2 3.5 22:11:53 47° NW 22:11:53 47° NW 22:15:05 10° NNW
Cosmos 1503 Rocket 4.4 22:11:39 55° ENE 22:11:39 55° ENE 22:16:09 10° NNE
CENTAUR R/B 3.9 22:13:10 21° E 22:13:10 21° E 22:16:39 10° ENE
Cosmos 2360 Rocket 4.0 22:14:37 10° NW 22:18:06 19° W 22:18:06 19° W
Cosmos 1709 Rocket 4.1 22:20:21 59° WSW 22:21:03 63° W 22:27:23 10° N
Cosmos 2333 Rocket 4.0 22:19:35 10° NW 22:23:08 20° W 22:23:08 20° W
H-2A R/B 3.1 22:20:37 10° NNE 22:23:29 41° NNE 22:23:29 41° NNE
Cosmos 2184 Rocket 4.4 22:30:27 49° ESE 22:30:56 50° E 22:37:03 10° NNE
Cosmos 1378 Rocket 4.5 22:37:10 45° NNE 22:37:10 45° NNE 22:40:16 10° N
Cosmos 2098 Rocket 3.9 22:31:46 10° N 22:38:25 89° W 22:38:55 78° S
Meteor 1-24 Rocket 3.9 22:39:51 63° W 22:40:01 63° W 22:45:43 10° N
NOSS 0 Rocket 3.8 22:36:46 10° NNW 22:43:02 89° WSW 22:43:21 82° SSE
Cosmos 2154 Rocket 4.2 22:46:40 53° ESE 22:47:12 54° E 22:53:16 10° NNE
Cosmos 1825 4.3 22:51:34 23° NNE 22:51:34 23° NNE 22:52:59 10° NNE
BlueWalker 3 4.1 22:50:03 23° NNW 22:50:03 23° NNW 22:53:01 10° NNE
Cosmos 1354 Rocket 4.1 22:51:12 74° NNW 22:51:12 74° NNW 22:56:13 10° NNE
Cosmos 2237 Rocket 2.3 22:46:18 10° NNW 22:51:57 64° ENE 22:52:21 62° E
Cosmos 332 Rocket 4.2 22:52:48 58° NE 22:52:48 58° NE 22:56:50 10° NNE
Cosmos 2227 Rocket 2.3 22:53:35 66° E 22:53:35 66° E 22:58:57 10° NNE
ATLAS 2AS CENTAUR R/B 4.2 22:51:46 10° WNW 22:55:16 19° W 22:55:16 19° W
Cosmos 1980 3.6 22:58:56 10° NNW 23:04:38 88° ENE 23:04:39 88° E
Nimbus 7 Rocket 4.4 22:59:08 10° NNE 23:05:13 72° ESE 23:05:40 68° SE
COSMOS 2455 4.1 23:08:58 27° W 23:10:55 33° NW 23:16:19 10° N
Cosmos 2219 3.6 23:12:45 51° ESE 23:12:45 51° ESE 23:18:07 10° NNE
Cosmos 2297 Rocket 2.9 23:13:09 40° W 23:13:53 42° WNW 23:19:14 10° N
Cosmos 2181 Rocket 4.3 23:16:07 10° NNW 23:21:59 47° W 23:22:13 47° W
CZ-2D R/B 3.9 23:20:19 10° NE 23:24:05 19° E 23:25:12 18° ESE
Cosmos 1610 Rocket 4.4 23:24:39 68° S 23:25:34 86° E 23:31:59 10° N
Okean 1 Rocket 3.7 23:23:21 10° NNW 23:26:39 49° NNW 23:26:39 49° NNW
Celestis-02/Orion 38 4.5 23:28:23 82° WSW 23:28:23 82° WSW 23:33:46 10° NNW
COSMOS 2428 4.3 23:25:11 10° NW 23:28:12 21° W 23:28:12 21° W
SL-4 R/B 3.4 23:27:03 10° NW 23:31:02 39° NNE 23:34:13 16° E
IDEFIX/ARIANE 42P 3.7 23:27:25 10° NNE 23:32:07 33° E 23:32:47 32° ESE
Cosmos 2074 Rocket 4.4 23:33:38 46° W 23:34:22 48° W 23:40:21 10° N
Aureole 1 Rocket 4.0 23:40:08 36° NNE 23:40:08 36° NNE 23:42:38 10° NNE
Cosmos 1975 Rocket 3.2 23:49:29 72° NNE 23:49:29 72° NNE 23:53:26 10° N
Cosmos 990 Rocket 4.2 23:48:51 52° W 23:49:05 53° WNW 23:54:07 10° N
MOZ.5/SAFIR/RUBIN 5/SL-8 4.1 23:49:47 55° ESE 23:50:22 60° ENE 23:54:56 10° N
Cosmos 2263 Rocket 2.0 23:50:27 67° SSE 23:51:05 76° ESE 23:56:40 10° NNE
Cosmos 1461 4.1 23:54:22 32° E 23:54:22 32° E 23:57:12 10° NE
Helios 1A Rocket 3.7 23:56:30 42° NNW 23:56:30 42° NNW 23:59:09 10° NNW
